| time (UTC) | temp F | wind direction | speed knots | gust knots | rain 1hr in | rain 24hr in | rain mn in | humidity % | barometer mb |
| 20260507034009 | 64 | 221 | 0.0 | 0.0 | 0.15 | 0.25 | 0.25 | 95 | 1010.4 |
| 20260507033604 | 64 | 150 | 0.0 | 0.0 | 0.16 | 0.25 | 0.25 | 95 | 1010.4 |
| 20260507033004 | 64 | 150 | 0.0 | 0.0 | 0.16 | 0.24 | 0.24 | 95 | 1011.2 |
| 20260507032510 | 64 | 150 | 0.0 | 2.6 | 0.16 | 0.24 | 0.24 | 95 | 1011.9 |
| 20260507032106 | 64 | 202 | 0.0 | 2.6 | 0.16 | 0.23 | 0.23 | 95 | 1012.2 |
| 20260507031510 | 64 | 124 | 0.0 | 3.5 | 0.16 | 0.22 | 0.22 | 94 | 1011.9 |
| 20260507031010 | 64 | 182 | 0.0 | 4.3 | 0.15 | 0.21 | 0.21 | 94 | 1012.0 |
| 20260507030605 | 65 | 167 | 0.0 | 4.3 | 0.13 | 0.19 | 0.19 | 94 | 1011.9 |
| 20260507030004 | 65 | 176 | 0.0 | 6.1 | 0.11 | 0.17 | 0.17 | 94 | 1011.9 |
| 20260507025510 | 65 | 159 | 0.0 | 6.1 | 0.08 | 0.14 | 0.14 | 94 | 1011.8 |
| 20260507025104 | 65 | 165 | 0.0 | 5.2 | 0.06 | 0.12 | 0.12 | 94 | 1012.0 |
| 20260507024503 | 65 | 147 | 0.0 | 5.2 | 0.05 | 0.10 | 0.10 | 94 | 1011.5 |
| 20260507024009 | 66 | 176 | 0.0 | 3.5 | 0.05 | 0.10 | 0.10 | 94 | 1011.2 |
| 20260507023603 | 66 | 160 | 0.0 | 3.5 | 0.04 | 0.09 | 0.09 | 94 | 1011.0 |
| 20260507023003 | 66 | 195 | 0.0 | 2.6 | 0.03 | 0.08 | 0.08 | 94 | 1010.8 |
| 20260507022510 | 66 | 191 | 0.0 | 2.6 | 0.03 | 0.08 | 0.08 | 94 | 1010.9 |
| 20260507022107 | 66 | 179 | 0.0 | 3.5 | 0.02 | 0.07 | 0.07 | 94 | 1011.1 |
| 20260507021609 | 66 | 183 | 0.0 | 5.2 | 0.01 | 0.06 | 0.06 | 94 | 1011.2 |
| 20260507020603 | 66 | 205 | 0.0 | 5.2 | 0.01 | 0.06 | 0.06 | 94 | 1010.7 |
| 20260507020005 | 66 | 228 | 0.0 | 5.2 | 0.01 | 0.06 | 0.06 | 94 | 1010.5 |
| 20260507015514 | 66 | 174 | 0.0 | 1.7 | 0.01 | 0.06 | 0.06 | 94 | 1010.5 |
| 20260507015104 | 66 | 184 | 0.0 | 1.7 | 0.01 | 0.06 | 0.06 | 93 | 1010.3 |
| 20260507014505 | 66 | 217 | 0.0 | 0.9 | 0.00 | 0.05 | 0.05 | 93 | 1010.2 |
| 20260507014010 | 66 | 217 | 0.0 | 0.9 | 0.01 | 0.05 | 0.05 | 93 | 1010.1 |
| 20260507013604 | 66 | 217 | 0.0 | 0.9 | 0.01 | 0.05 | 0.05 | 93 | 1009.8 |
| 20260507013004 | 66 | 217 | 0.0 | 0.0 | 0.01 | 0.05 | 0.05 | 93 | 1010.0 |
| 20260507012512 | 66 | 217 | 0.0 | 0.0 | 0.01 | 0.05 | 0.05 | 93 | 1009.8 |
| 20260507012104 | 66 | 217 | 0.0 | 0.0 | 0.01 | 0.05 | 0.05 | 92 | 1009.8 |
| 20260507011504 | 67 | 217 | 0.0 | 0.0 | 0.01 | 0.05 | 0.05 | 92 | 1009.9 |
| 20260507011010 | 67 | 217 | 0.0 | 0.0 | 0.01 | 0.05 | 0.05 | 92 | 1010.0 |
| 20260507010603 | 67 | 217 | 0.0 | 0.0 | 0.01 | 0.05 | 0.05 | 92 | 1010.1 |
| 20260507010003 | 67 | 217 | 0.0 | 0.0 | 0.01 | 0.05 | 0.05 | 91 | 1010.1 |
| 20260507005510 | 67 | 217 | 0.0 | 0.0 | 0.01 | 0.05 | 0.05 | 91 | 1010.2 |
| 20260507005104 | 67 | 217 | 0.0 | 0.9 | 0.01 | 0.05 | 0.05 | 91 | 1010.2 |
| 20260507004502 | 67 | 217 | 0.0 | 0.9 | 0.01 | 0.05 | 0.05 | 90 | 1010.1 |
| 20260507004010 | 67 | 217 | 0.0 | 0.0 | 0.00 | 0.04 | 0.04 | 90 | 1009.7 |
| 20260507003603 | 67 | 217 | 0.0 | 0.0 | 0.00 | 0.04 | 0.04 | 90 | 1009.9 |
| 20260507003006 | 68 | 217 | 0.0 | 0.9 | 0.00 | 0.04 | 0.04 | 89 | 1009.7 |
| 20260507002509 | 68 | 217 | 0.0 | 0.9 | 0.00 | 0.04 | 0.04 | 89 | 1009.8 |
| 20260507002104 | 68 | 217 | 0.0 | 0.0 | 0.00 | 0.04 | 0.04 | 88 | 1009.8 |
| 20260507001504 | 68 | 217 | 0.0 | 0.9 | 0.00 | 0.04 | 0.04 | 87 | 1009.9 |
| 20260507001009 | 68 | 217 | 0.0 | 0.9 | 0.00 | 0.04 | 0.04 | 87 | 1010.0 |
| 20260507000604 | 68 | 179 | 0.0 | 0.9 | 0.00 | 0.04 | 0.04 | 86 | 1009.7 |
| 20260507000003 | 69 | 179 | 0.0 | 0.9 | 0.00 | 0.04 | 0.04 | 86 | 1009.6 |
| 20260506235510 | 69 | 179 | 0.0 | 0.9 | 0.00 | 0.04 | 0.04 | 85 | 1009.6 |
| 20260506235107 | 69 | 179 | 0.0 | 0.9 | 0.00 | 0.04 | 0.04 | 84 | 1009.7 |
| 20260506234504 | 69 | 179 | 0.0 | 0.9 | 0.00 | 0.04 | 0.04 | 84 | 1009.9 |
| 20260506234010 | 70 | 179 | 0.0 | 0.9 | 0.00 | 0.04 | 0.04 | 83 | 1009.8 |
| 20260506233603 | 70 | 179 | 0.0 | 0.9 | 0.00 | 0.04 | 0.04 | 84 | 1009.8 |
| 20260506233110 | 70 | 177 | 0.0 | 0.0 | 0.00 | 0.04 | 0.04 | 83 | 1009.8 |
| 20260506232514 | 70 | 177 | 0.0 | 0.9 | 0.00 | 0.04 | 0.04 | 83 | 1009.6 |
| 20260506231505 | 70 | 162 | 0.0 | 0.9 | 0.00 | 0.04 | 0.04 | 82 | 1009.6 |
| 20260506231009 | 70 | 156 | 0.0 | 0.9 | 0.00 | 0.04 | 0.04 | 81 | 1009.7 |
| 20260506230602 | 70 | 155 | 0.0 | 0.9 | 0.00 | 0.04 | 0.04 | 82 | 1009.7 |
| 20260506230007 | 71 | 205 | 0.0 | 2.6 | 0.00 | 0.04 | 0.04 | 82 | 1010.1 |
| 20260506225509 | 71 | 192 | 0.0 | 2.6 | 0.00 | 0.04 | 0.04 | 81 | 1010.3 |
| 20260506225103 | 71 | 180 | 0.0 | 0.9 | 0.00 | 0.04 | 0.04 | 81 | 1010.2 |
| 20260506224504 | 71 | 191 | 0.0 | 0.9 | 0.00 | 0.04 | 0.04 | 80 | 1010.2 |
| 20260506224012 | 71 | 185 | 0.0 | 1.7 | 0.00 | 0.04 | 0.04 | 80 | 1010.2 |
| 20260506223606 | 71 | 168 | 0.0 | 1.7 | 0.00 | 0.04 | 0.04 | 79 | 1010.2 |
| 20260506223003 | 71 | 139 | 0.0 | 1.7 | 0.00 | 0.04 | 0.04 | 78 | 1010.1 |
| 20260506222509 | 71 | 115 | 0.0 | 3.5 | 0.00 | 0.04 | 0.04 | 78 | 1010.1 |
| 20260506222105 | 71 | 197 | 0.0 | 7.0 | 0.00 | 0.04 | 0.04 | 77 | 1010.2 |
| 20260506221504 | 71 | 200 | 0.0 | 7.0 | 0.00 | 0.04 | 0.04 | 78 | 1010.1 |
| 20260506221009 | 71 | 169 | 0.9 | 7.0 | 0.00 | 0.04 | 0.04 | 78 | 1010.3 |
| 20260506220603 | 72 | 174 | 0.0 | 4.3 | 0.00 | 0.04 | 0.04 | 79 | 1010.2 |
| 20260506220004 | 72 | 178 | 0.0 | 6.1 | 0.00 | 0.04 | 0.04 | 79 | 1010.3 |
| 20260506215509 | 72 | 176 | 0.9 | 6.1 | 0.00 | 0.04 | 0.04 | 78 | 1010.3 |
| 20260506215103 | 72 | 212 | 0.0 | 5.2 | 0.00 | 0.04 | 0.04 | 79 | 1010.2 |
| 20260506214503 | 72 | 202 | 0.0 | 6.1 | 0.00 | 0.04 | 0.04 | 78 | 1010.1 |
| 20260506214012 | 72 | 168 | 0.0 | 4.3 | 0.00 | 0.04 | 0.04 | 77 | 1009.9 |
| 20260506213603 | 72 | 185 | 0.0 | 3.5 | 0.00 | 0.04 | 0.04 | 78 | 1009.8 |
| 20260506213004 | 71 | 179 | 0.0 | 6.1 | 0.00 | 0.04 | 0.04 | 78 | 1009.7 |
| 20260506212509 | 71 | 207 | 1.7 | 6.1 | 0.00 | 0.04 | 0.04 | 77 | 1009.6 |
| 20260506212104 | 71 | 182 | 0.0 | 5.2 | 0.00 | 0.04 | 0.04 | 78 | 1009.5 |
| 20260506211504 | 71 | 205 | 0.0 | 5.2 | 0.00 | 0.04 | 0.04 | 77 | 1009.7 |
| 20260506211010 | 71 | 255 | 0.0 | 9.6 | 0.00 | 0.04 | 0.04 | 77 | 1009.8 |
| 20260506210603 | 71 | 167 | 0.9 | 9.6 | 0.00 | 0.04 | 0.04 | 76 | 1009.8 |
| 20260506210004 | 72 | 163 | 0.0 | 3.5 | 0.00 | 0.04 | 0.04 | 77 | 1010.0 |
| 20260506205511 | 72 | 177 | 0.0 | 3.5 | 0.00 | 0.04 | 0.04 | 78 | 1010.0 |
| 20260506205103 | 72 | 221 | 0.0 | 2.6 | 0.00 | 0.04 | 0.04 | 77 | 1010.0 |
| 20260506204504 | 72 | 179 | 0.0 | 8.7 | 0.00 | 0.04 | 0.04 | 76 | 1010.1 |
| 20260506204010 | 72 | 214 | 0.0 | 8.7 | 0.00 | 0.04 | 0.04 | 76 | 1010.3 |
| 20260506203603 | 72 | 161 | 2.6 | 8.7 | 0.00 | 0.04 | 0.04 | 77 | 1010.4 |
| 20260506203010 | 72 | 175 | 0.9 | 11.3 | 0.00 | 0.04 | 0.04 | 77 | 1010.3 |
| 20260506202510 | 72 | 214 | 1.7 | 11.3 | 0.00 | 0.04 | 0.04 | 78 | 1010.4 |
| 20260506202103 | 71 | 181 | 0.0 | 6.1 | 0.00 | 0.04 | 0.04 | 79 | 1010.3 |
| 20260506201502 | 70 | 183 | 1.7 | 7.0 | 0.00 | 0.04 | 0.04 | 81 | 1010.2 |
| 20260506201009 | 70 | 233 | 0.9 | 12.2 | 0.00 | 0.04 | 0.04 | 79 | 1010.4 |
| 20260506200603 | 70 | 195 | 2.6 | 12.2 | 0.00 | 0.04 | 0.04 | 80 | 1010.3 |
| 20260506200010 | 69 | 226 | 2.6 | 9.6 | 0.00 | 0.04 | 0.04 | 81 | 1010.2 |
| 20260506195509 | 69 | 180 | 0.0 | 7.8 | 0.00 | 0.04 | 0.04 | 82 | 1010.1 |
| 20260506195104 | 69 | 179 | 0.9 | 7.8 | 0.00 | 0.04 | 0.04 | 85 | 1010.3 |
| 20260506194503 | 68 | 198 | 0.9 | 7.0 | 0.00 | 0.04 | 0.04 | 84 | 1010.5 |
| 20260506194008 | 68 | 209 | 0.0 | 3.5 | 0.00 | 0.04 | 0.04 | 86 | 1010.5 |
| 20260506193602 | 67 | 200 | 0.0 | 6.1 | 0.00 | 0.04 | 0.04 | 86 | 1010.4 |
| 20260506193004 | 67 | 148 | 0.9 | 6.1 | 0.00 | 0.04 | 0.04 | 86 | 1010.4 |
| 20260506192103 | 66 | 208 | 1.7 | 6.1 | 0.00 | 0.04 | 0.04 | 86 | 1010.4 |
| 20260506191504 | 66 | 208 | 0.0 | 4.3 | 0.00 | 0.04 | 0.04 | 90 | 1010.4 |
| 20260506191009 | 65 | 157 | 0.0 | 4.3 | 0.00 | 0.04 | 0.04 | 90 | 1010.4 |
| 20260506190606 | 65 | 162 | 0.0 | 0.0 | 0.00 | 0.04 | 0.04 | 90 | 1010.7 |
| 20260506190003 | 65 | 213 | 0.0 | 0.0 | 0.00 | 0.04 | 0.04 | 89 | 1010.7 |
| 20260506185508 | 65 | 212 | 0.0 | 0.0 | 0.00 | 0.04 | 0.04 | 89 | 1010.5 |
| 20260506185103 | 65 | 200 | 0.0 | 10.4 | 0.00 | 0.04 | 0.04 | 89 | 1010.8 |
| 20260506184515 | 65 | 209 | 2.6 | 10.4 | 0.01 | 0.04 | 0.04 | 89 | 1011.0 |
| 20260506184010 | 65 | 178 | 0.0 | 2.6 | 0.01 | 0.04 | 0.04 | 90 | 1010.9 |
| 20260506183605 | 65 | 179 | 0.0 | 0.9 | 0.02 | 0.04 | 0.04 | 90 | 1010.8 |
| 20260506183004 | 65 | 185 | 0.0 | 0.0 | 0.03 | 0.04 | 0.04 | 91 | 1010.7 |
| 20260506182510 | 65 | 183 | 0.0 | 0.0 | 0.04 | 0.04 | 0.04 | 92 | 1010.6 |
| 20260506182104 | 65 | 176 | 0.0 | 0.0 | 0.04 | 0.04 | 0.04 | 91 | 1010.6 |
| 20260506181504 | 65 | 176 | 0.0 | 0.0 | 0.04 | 0.04 | 0.04 | 91 | 1010.8 |
| 20260506181011 | 65 | 176 | 0.0 | 0.0 | 0.04 | 0.04 | 0.04 | 90 | 1011.2 |
| 20260506180604 | 65 | 176 | 0.0 | 0.0 | 0.04 | 0.04 | 0.04 | 89 | 1011.7 |
| 20260506180006 | 65 | 206 | 0.0 | 0.0 | 0.04 | 0.04 | 0.04 | 89 | 1012.2 |
| 20260506175509 | 65 | 183 | 0.0 | 0.0 | 0.04 | 0.04 | 0.04 | 88 | 1012.3 |
| 20260506175106 | 66 | 181 | 0.0 | 0.0 | 0.04 | 0.04 | 0.04 | 87 | 1012.2 |
| 20260506174503 | 66 | 187 | 0.0 | 0.0 | 0.03 | 0.03 | 0.03 | 85 | 1012.3 |
| 20260506174012 | 67 | 119 | 0.0 | 0.9 | 0.03 | 0.03 | 0.03 | 84 | 1012.4 |
| 20260506173602 | 68 | 175 | 0.0 | 0.9 | 0.02 | 0.02 | 0.02 | 82 | 1012.6 |
| 20260506173002 | 69 | 180 | 0.0 | 0.0 | 0.01 | 0.01 | 0.01 | 79 | 1012.8 |
| 20260506172509 | 69 | 170 | 0.0 | 0.0 | 0.00 | 0.00 | 0.00 | 79 | 1012.9 |
| 20260506172103 | 70 | 192 | 0.0 | 0.0 | 0.00 | 0.00 | 0.00 | 78 | 1012.8 |
| 20260506171504 | 70 | 192 | 0.0 | 0.0 | 0.00 | 0.00 | 0.00 | 76 | 1012.3 |
| 20260506171009 | 70 | 192 | 0.0 | 0.0 | 0.00 | 0.00 | 0.00 | 76 | 1012.2 |
| 20260506170604 | 70 | 194 | 0.0 | 0.9 | 0.00 | 0.00 | 0.00 | 77 | 1012.2 |
| 20260506170003 | 70 | 201 | 0.0 | 0.9 | 0.00 | 0.00 | 0.00 | 75 | 1012.1 |
| 20260506165510 | 70 | 188 | 0.0 | 0.9 | 0.00 | 0.00 | 0.00 | 74 | 1012.1 |
| 20260506165103 | 70 | 183 | 0.0 | 0.9 | 0.00 | 0.00 | 0.00 | 73 | 1012.3 |
| 20260506164504 | 70 | 250 | 0.0 | 0.0 | 0.00 | 0.00 | 0.00 | 71 | 1012.3 |
| 20260506164011 | 70 | 174 | 0.0 | 0.9 | 0.00 | 0.00 | 0.00 | 72 | 1012.2 |
| 20260506163603 | 70 | 168 | 0.0 | 0.9 | 0.00 | 0.00 | 0.00 | 72 | 1012.0 |
| 20260506163006 | 70 | 162 | 0.0 | 0.0 | 0.00 | 0.00 | 0.00 | 71 | 1012.2 |
| 20260506162103 | 69 | 182 | 0.0 | 0.9 | 0.00 | 0.00 | 0.00 | 75 | 1012.4 |
| 20260506161506 | 69 | 167 | 0.0 | 0.9 | 0.00 | 0.00 | 0.00 | 74 | 1012.5 |
| 20260506161011 | 69 | 196 | 0.0 | 5.2 | 0.00 | 0.00 | 0.00 | 75 | 1012.4 |
| 20260506160603 | 69 | 200 | 0.0 | 5.2 | 0.00 | 0.00 | 0.00 | 75 | 1012.4 |
| 20260506160004 | 68 | 199 | 0.0 | 3.5 | 0.00 | 0.00 | 0.00 | 76 | 1012.3 |
| 20260506155509 | 68 | 191 | 0.0 | 2.6 | 0.00 | 0.00 | 0.00 | 77 | 1012.0 |
| 20260506155103 | 67 | 174 | 0.0 | 2.6 | 0.00 | 0.00 | 0.00 | 76 | 1011.9 |
| 20260506154503 | 67 | 176 | 0.0 | 0.0 | 0.00 | 0.00 | 0.00 | 77 | 1011.8 |
| 20260506154010 | 66 | 207 | 0.0 | 0.0 | 0.00 | 0.00 | 0.00 | 77 | 1011.7 |
| 20260506153604 | 66 | 207 | 0.0 | 0.0 | 0.00 | 0.00 | 0.00 | 77 | 1011.4 |
| 20260506153004 | 66 | 207 | 0.0 | 0.0 | 0.00 | 0.00 | 0.00 | 77 | 1011.6 |
| 20260506152510 | 66 | 207 | 0.0 | 0.0 | 0.00 | 0.00 | 0.00 | 77 | 1011.5 |
| 20260506152104 | 66 | 207 | 0.0 | 1.7 | 0.00 | 0.00 | 0.00 | 77 | 1011.7 |
| 20260506151503 | 66 | 183 | 0.0 | 1.7 | 0.00 | 0.00 | 0.00 | 76 | 1011.9 |
| 20260506151008 | 65 | 186 | 0.0 | 0.0 | 0.00 | 0.00 | 0.00 | 77 | 1011.8 |
| 20260506150603 | 65 | 193 | 0.0 | 0.0 | 0.00 | 0.00 | 0.00 | 77 | 1012.0 |
| 20260506150003 | 65 | 217 | 0.0 | 0.0 | 0.00 | 0.00 | 0.00 | 76 | 1011.9 |
| 20260506145514 | 65 | 214 | 0.0 | 0.0 | 0.00 | 0.00 | 0.00 | 77 | 1011.9 |
| 20260506145104 | 65 | 197 | 0.0 | 0.0 | 0.00 | 0.00 | 0.00 | 76 | 1011.9 |
| 20260506144509 | 65 | 169 | 0.0 | 0.0 | 0.00 | 0.00 | 0.00 | 76 | 1012.1 |
| 20260506144009 | 65 | 171 | 0.0 | 0.0 | 0.00 | 0.00 | 0.00 | 76 | 1012.1 |
| 20260506143604 | 65 | 179 | 0.0 | 0.0 | 0.00 | 0.00 | 0.00 | 76 | 1012.1 |
| 20260506143003 | 65 | 181 | 0.0 | 0.0 | 0.00 | 0.00 | 0.00 | 76 | 1011.9 |
| 20260506142509 | 65 | 165 | 0.0 | 0.0 | 0.00 | 0.00 | 0.00 | 75 | 1011.9 |
| 20260506142102 | 65 | 161 | 0.0 | 0.9 | 0.00 | 0.00 | 0.00 | 75 | 1012.0 |
| 20260506141504 | 65 | 259 | 0.0 | 0.9 | 0.00 | 0.00 | 0.00 | 75 | 1012.0 |
| 20260506141009 | 65 | 219 | 0.0 | 0.0 | 0.00 | 0.00 | 0.00 | 74 | 1011.9 |
| 20260506140605 | 65 | 202 | 0.0 | 0.0 | 0.00 | 0.00 | 0.00 | 74 | 1011.8 |
| 20260506140004 | 65 | 170 | 0.0 | 0.0 | 0.00 | 0.00 | 0.00 | 75 | 1011.8 |
| 20260506135508 | 65 | 159 | 0.0 | 0.9 | 0.00 | 0.00 | 0.00 | 74 | 1011.9 |
| 20260506135103 | 65 | 150 | 0.0 | 0.9 | 0.00 | 0.00 | 0.00 | 74 | 1011.8 |
| 20260506134503 | 65 | 174 | 0.0 | 0.9 | 0.00 | 0.00 | 0.00 | 74 | 1011.8 |
| 20260506134010 | 65 | 174 | 0.0 | 0.9 | 0.00 | 0.00 | 0.00 | 74 | 1011.8 |
| 20260506133603 | 65 | 171 | 0.0 | 0.0 | 0.00 | 0.00 | 0.00 | 75 | 1011.8 |
| 20260506133003 | 65 | 169 | 0.0 | 0.0 | 0.00 | 0.00 | 0.00 | 74 | 1011.8 |
| 20260506132511 | 65 | 233 | 0.0 | 0.0 | 0.00 | 0.00 | 0.00 | 74 | 1011.5 |
| 20260506132103 | 65 | 179 | 0.0 | 0.0 | 0.00 | 0.00 | 0.00 | 75 | 1011.3 |
| 20260506131502 | 64 | 174 | 0.0 | 1.7 | 0.00 | 0.00 | 0.00 | 75 | 1011.7 |
| 20260506131010 | 64 | 187 | 0.0 | 0.9 | 0.00 | 0.00 | 0.00 | 76 | 1011.7 |
| 20260506130606 | 64 | 187 | 0.0 | 0.0 | 0.00 | 0.00 | 0.00 | 76 | 1011.5 |
| 20260506130005 | 63 | 172 | 0.0 | 0.9 | 0.00 | 0.00 | 0.00 | 75 | 1011.6 |
| 20260506125510 | 63 | 141 | 0.0 | 0.9 | 0.00 | 0.00 | 0.00 | 76 | 1011.9 |
| 20260506125103 | 63 | 188 | 0.0 | 0.9 | 0.00 | 0.00 | 0.00 | 77 | 1012.0 |
| 20260506124503 | 63 | 182 | 0.0 | 0.9 | 0.00 | 0.00 | 0.00 | 77 | 1012.0 |
| 20260506124008 | 63 | 172 | 0.0 | 1.7 | 0.00 | 0.00 | 0.00 | 77 | 1012.2 |
| 20260506123603 | 63 | 200 | 0.0 | 1.7 | 0.00 | 0.00 | 0.00 | 77 | 1012.2 |
| 20260506123003 | 62 | 212 | 0.0 | 0.0 | 0.00 | 0.00 | 0.00 | 77 | 1012.1 |
| 20260506122510 | 62 | 148 | 0.0 | 0.9 | 0.00 | 0.00 | 0.00 | 77 | 1012.2 |
| 20260506122102 | 62 | 195 | 0.0 | 0.9 | 0.00 | 0.00 | 0.00 | 78 | 1012.4 |
| 20260506121503 | 62 | 179 | 0.0 | 0.9 | 0.00 | 0.00 | 0.00 | 78 | 1012.4 |
| 20260506121009 | 62 | 214 | 0.0 | 1.7 | 0.00 | 0.00 | 0.00 | 78 | 1012.3 |
| 20260506120605 | 62 | 171 | 0.0 | 1.7 | 0.00 | 0.00 | 0.00 | 78 | 1012.4 |
| 20260506120003 | 62 | 179 | 0.0 | 0.9 | 0.00 | 0.00 | 0.00 | 79 | 1012.4 |
| 20260506115514 | 62 | 205 | 0.0 | 0.0 | 0.00 | 0.00 | 0.00 | 79 | 1012.4 |
| 20260506115102 | 62 | 173 | 0.0 | 0.0 | 0.00 | 0.00 | 0.00 | 79 | 1012.2 |
| 20260506114502 | 61 | 185 | 0.0 | 1.7 | 0.00 | 0.00 | 0.00 | 80 | 1012.3 |
| 20260506114012 | 61 | 169 | 0.0 | 1.7 | 0.00 | 0.00 | 0.00 | 80 | 1012.2 |
| 20260506113603 | 61 | 248 | 0.0 | 0.0 | 0.00 | 0.00 | 0.00 | 80 | 1012.2 |
| 20260506113003 | 61 | 176 | 0.0 | 0.0 | 0.00 | 0.00 | 0.00 | 80 | 1012.0 |
| 20260506112509 | 61 | 212 | 0.0 | 0.0 | 0.00 | 0.00 | 0.00 | 80 | 1011.9 |
| 20260506112106 | 61 | 212 | 0.0 | 0.0 | 0.00 | 0.00 | 0.00 | 81 | 1012.0 |
| 20260506111503 | 60 | 211 | 0.0 | 0.0 | 0.00 | 0.00 | 0.00 | 80 | 1011.9 |
| 20260506111013 | 60 | 211 | 0.0 | 0.0 | 0.00 | 0.00 | 0.00 | 80 | 1011.9 |
| 20260506110603 | 60 | 208 | 0.0 | 0.0 | 0.00 | 0.00 | 0.00 | 80 | 1011.8 |
| 20260506110003 | 60 | 207 | 0.0 | 0.0 | 0.00 | 0.00 | 0.00 | 80 | 1011.4 |
| 20260506105511 | 60 | 207 | 0.0 | 0.0 | 0.00 | 0.00 | 0.00 | 80 | 1011.4 |
| 20260506105103 | 60 | 207 | 0.0 | 0.0 | 0.00 | 0.00 | 0.00 | 79 | 1011.5 |
| 20260506104502 | 60 | 207 | 0.0 | 0.0 | 0.00 | 0.00 | 0.00 | 79 | 1011.4 |
| 20260506104009 | 60 | 182 | 0.0 | 0.0 | 0.00 | 0.00 | 0.00 | 79 | 1011.3 |
| 20260506103602 | 61 | 182 | 0.0 | 0.0 | 0.00 | 0.00 | 0.00 | 78 | 1011.3 |
| 20260506103003 | 61 | 182 | 0.0 | 0.0 | 0.00 | 0.00 | 0.00 | 78 | 1011.3 |
| 20260506102509 | 61 | 176 | 0.0 | 0.0 | 0.00 | 0.00 | 0.00 | 78 | 1011.3 |
| 20260506102102 | 61 | 176 | 0.0 | 0.9 | 0.00 | 0.00 | 0.00 | 78 | 1011.3 |
| 20260506101504 | 61 | 150 | 0.0 | 0.9 | 0.00 | 0.00 | 0.00 | 77 | 1011.3 |
| 20260506101012 | 61 | 226 | 0.0 | 0.0 | 0.00 | 0.00 | 0.00 | 77 | 1011.3 |
| 20260506100602 | 61 | 177 | 0.0 | 0.0 | 0.00 | 0.00 | 0.00 | 77 | 1011.2 |
| 20260506100011 | 61 | 166 | 0.0 | 0.0 | 0.00 | 0.00 | 0.00 | 77 | 1011.2 |
| 20260506095510 | 61 | 190 | 0.0 | 0.0 | 0.00 | 0.00 | 0.00 | 77 | 1011.2 |
| 20260506095103 | 61 | 170 | 0.0 | 0.0 | 0.00 | 0.00 | 0.00 | 77 | 1011.3 |
| 20260506094505 | 61 | 186 | 0.0 | 0.0 | 0.00 | 0.00 | 0.00 | 77 | 1011.5 |
| 20260506094010 | 61 | 186 | 0.0 | 0.0 | 0.00 | 0.00 | 0.00 | 77 | 1011.3 |
| 20260506093602 | 61 | 187 | 0.0 | 0.0 | 0.00 | 0.00 | 0.00 | 77 | 1011.5 |
| 20260506093004 | 62 | 174 | 0.0 | 0.0 | 0.00 | 0.00 | 0.00 | 76 | 1011.4 |
| 20260506092510 | 62 | 183 | 0.0 | 0.0 | 0.00 | 0.00 | 0.00 | 76 | 1011.4 |
| 20260506092105 | 62 | 183 | 0.0 | 0.0 | 0.00 | 0.00 | 0.00 | 76 | 1011.6 |
| 20260506091504 | 62 | 183 | 0.0 | 0.0 | 0.00 | 0.00 | 0.00 | 76 | 1011.6 |
| 20260506091015 | 62 | 183 | 0.0 | 0.0 | 0.00 | 0.00 | 0.00 | 75 | 1011.6 |
| 20260506090604 | 62 | 177 | 0.0 | 0.0 | 0.00 | 0.00 | 0.00 | 75 | 1011.7 |
| 20260506090002 | 62 | 205 | 0.0 | 0.0 | 0.00 | 0.00 | 0.00 | 75 | 1011.8 |
| 20260506085511 | 62 | 165 | 0.0 | 0.0 | 0.00 | 0.00 | 0.00 | 75 | 1011.7 |
| 20260506085105 | 62 | 162 | 0.0 | 0.9 | 0.00 | 0.00 | 0.00 | 75 | 1011.9 |
| 20260506084503 | 62 | 198 | 0.0 | 0.9 | 0.00 | 0.00 | 0.00 | 75 | 1011.8 |
| 20260506084009 | 63 | 186 | 0.0 | 1.7 | 0.00 | 0.00 | 0.00 | 74 | 1011.8 |
| 20260506083603 | 63 | 217 | 0.0 | 1.7 | 0.00 | 0.00 | 0.00 | 74 | 1011.9 |
| 20260506083003 | 63 | 217 | 0.0 | 0.9 | 0.00 | 0.00 | 0.00 | 74 | 1011.8 |
| 20260506082516 | 63 | 176 | 0.0 | 0.0 | 0.00 | 0.00 | 0.00 | 74 | 1011.9 |
| 20260506082103 | 63 | 225 | 0.0 | 0.0 | 0.00 | 0.00 | 0.00 | 74 | 1011.8 |
| 20260506081506 | 63 | 167 | 0.0 | 1.7 | 0.00 | 0.00 | 0.00 | 74 | 1012.0 |
| 20260506081009 | 63 | 188 | 0.0 | 1.7 | 0.00 | 0.00 | 0.00 | 73 | 1011.9 |
| 20260506080606 | 63 | 202 | 0.0 | 0.9 | 0.00 | 0.00 | 0.00 | 73 | 1012.0 |
| 20260506073003 | 63 | 217 | 0.0 | 4.3 | 0.00 | 0.00 | 0.00 | 73 | 1011.7 |
| 20260506072509 | 63 | 140 | 0.0 | 0.0 | 0.00 | 0.00 | 0.00 | 73 | 1011.3 |
| 20260506072102 | 63 | 197 | 0.0 | 0.0 | 0.00 | 0.00 | 0.00 | 73 | 1011.7 |
| 20260506071502 | 63 | 181 | 0.0 | 2.6 | 0.00 | 0.00 | 0.00 | 73 | 1011.7 |
| 20260506071010 | 63 | 182 | 0.0 | 2.6 | 0.00 | 0.00 | 0.00 | 73 | 1011.8 |
| 20260506070602 | 64 | 193 | 0.0 | 10.4 | 0.00 | 0.00 | 0.00 | 73 | 1011.9 |
| 20260506062510 | 64 | 190 | 0.0 | 7.0 | 0.00 | 0.00 | 0.00 | 72 | 1012.3 |
| 20260506062104 | 64 | 180 | 0.0 | 4.3 | 0.00 | 0.00 | 0.00 | 72 | 1012.2 |
| 20260506061503 | 64 | 210 | 0.0 | 3.5 | 0.00 | 0.00 | 0.00 | 72 | 1012.2 |
| 20260506061009 | 64 | 240 | 0.0 | 1.7 | 0.00 | 0.00 | 0.00 | 71 | 1012.3 |
| 20260506060602 | 64 | 204 | 0.0 | 1.7 | 0.00 | 0.00 | 0.00 | 71 | 1012.3 |
| 20260506051008 | 65 | 169 | 0.0 | 4.3 | 0.00 | 0.00 | 0.00 | 67 | 1012.5 |
| 20260506050604 | 65 | 163 | 0.0 | 2.6 | 0.00 | 0.00 | 0.00 | 66 | 1012.3 |
| 20260506050109 | 65 | 155 | 0.0 | 0.0 | 0.00 | 0.00 | 0.00 | 66 | 1012.5 |
| 20260506045103 | 65 | 172 | 0.0 | 0.9 | 0.00 | 0.00 | 0.00 | 65 | 1012.6 |
| 20260506044506 | 65 | 191 | 0.0 | 0.0 | 0.00 | 0.00 | 0.00 | 64 | 1012.7 |
| 20260506044008 | 66 | 209 | 0.0 | 0.9 | 0.00 | 0.00 | 0.00 | 64 | 1012.6 |
| 20260506043602 | 66 | 160 | 0.0 | 0.9 | 0.00 | 0.00 | 0.00 | 63 | 1012.5 |
| 20260506043005 | 66 | 194 | 0.0 | 0.0 | 0.00 | 0.00 | 0.00 | 63 | 1012.5 |
| 20260506042509 | 66 | 170 | 0.0 | 0.9 | 0.00 | 0.00 | 0.00 | 62 | 1012.4 |
| 20260506042103 | 66 | 164 | 0.0 | 0.9 | 0.00 | 0.00 | 0.00 | 63 | 1012.4 |
| 20260506041503 | 66 | 214 | 0.0 | 0.0 | 0.00 | 0.00 | 0.00 | 62 | 1012.5 |
| 20260506041004 | 66 | 242 | 0.0 | 0.0 | 0.00 | 0.00 | 0.00 | 62 | 1012.5 |
| 20260506040503 | 67 | 179 | 0.0 | 0.0 | 0.00 | 0.00 | 0.00 | 62 | 1012.5 |
| 20260506040009 | 67 | 174 | 0.0 | 0.0 | 0.00 | 0.00 | 0.00 | 61 | 1012.4 |
| 20260506035602 | 67 | 184 | 0.0 | 0.9 | 0.00 | 0.00 | 0.00 | 61 | 1012.5 |
| 20260506035003 | 67 | 180 | 0.0 | 0.9 | 0.00 | 0.00 | 0.00 | 60 | 1012.4 |
| 20260506034510 | 67 | 202 | 0.0 | 0.9 | 0.00 | 0.00 | 0.00 | 60 | 1012.3 |